Change the Weather History Date:

Friday, January 17, 2014

  Actual Average Record
Temperature  
Mean Temperature 36 °F -  
Max Temperature 43 °F 35 °F 50 °F (1949)
Min Temperature 30 °F 18 °F 2 °F (1982)
Degree Days  
Heating Degree Days 28    
Moisture  
Dew Point 35 °F    
Average Humidity 91    
Maximum Humidity 100    
Minimum Humidity 68    
Precipitation  
Precipitation 0.00 in - - ()
Sea Level Pressure  
Sea Level Pressure 29.96 in    
Wind  
Wind Speed 3 mph (SW)    
Max Wind Speed 10 mph    
Max Gust Speed -    
Visibility 6 miles    
Events Fog    
Averages and records for this station are not official NWS values.
T = Trace of Precipitation, MM = Missing Value Source: NWS Daily Summary

Daily Weather History Graph

Daily Weather History Graph

Search for Another Location

Airport or City:

Trip Planner

Search our weather history database for the weather conditions in past years. The results will help you decide how hot, cold, wet, or windy it might be!

Date:

Astronomy

Jan. 17, 2014 Rise Set
Actual Time 7:02 AM EST 4:38 PM EST
Civil Twilight 6:32 AM EST 5:08 PM EST
Nautical Twilight 5:58 AM EST 5:42 PM EST
Astronomical Twilight 5:25 AM EST 6:15 PM EST
Moon 6:23 PM EST (1/17) 7:27 AM EST (1/17)
Length of Visible Light 10h 36m
Length of Day
9h 35m
Full, 98% of the Moon is Illuminated
Jan 17
Full
Jan 24
Last Quarter
Jan 30
New
Feb 6
First Quarter
Feb 14
Full

Hourly Weather History & Observations

Time (EST) Temp. Windchill Dew Point Humidity Pressure Visibility Wind Dir Wind Speed Gust Speed Precip Events Conditions
12:53 AM 39.9 °F 36.7 °F 37.9 °F 93% 29.92 in 8.0 mi WNW 4.6 mph - N/A   Overcast
1:43 AM 39.2 °F 35.9 °F 37.4 °F 93% 29.93 in 6.0 mi West 4.6 mph - N/A   Overcast
1:53 AM 39.9 °F 36.7 °F 37.9 °F 93% 29.94 in 5.0 mi West 4.6 mph - N/A   Overcast
2:33 AM 39.2 °F - 37.4 °F 93% 29.93 in 8.0 mi Calm Calm - N/A   Overcast
2:53 AM 39.0 °F - 39.0 °F 100% 29.93 in 10.0 mi Calm Calm - N/A   Overcast
3:19 AM 37.4 °F - 35.6 °F 93% 29.93 in 1.8 mi Calm Calm - N/A   Overcast
3:30 AM 35.6 °F - 35.6 °F 100% 29.93 in 0.5 mi Calm Calm - N/A Fog Fog
3:37 AM 35.6 °F - 35.6 °F 100% 29.92 in 0.2 mi Calm Calm - N/A Fog Fog
3:53 AM 36.0 °F - 34.0 °F 93% 29.93 in 0.2 mi Calm Calm - N/A Fog Fog
4:09 AM 33.8 °F - 33.8 °F 100% 29.94 in 0.2 mi Calm Calm - N/A Fog Fog
4:18 AM 33.8 °F 30.8 °F 33.8 °F 100% 29.94 in 0.5 mi South 3.5 mph - N/A Fog Fog
4:42 AM 35.6 °F - 33.8 °F 93% 29.95 in 1.0 mi Calm Calm - N/A   Overcast
4:53 AM 36.0 °F 33.3 °F 34.0 °F 93% 29.95 in 1.0 mi West 3.5 mph - N/A   Overcast
5:11 AM 35.6 °F 32.8 °F 35.6 °F 100% 29.95 in 3.0 mi West 3.5 mph - N/A   Overcast
5:26 AM 35.6 °F - 35.6 °F 100% 29.95 in 1.8 mi Calm Calm - N/A   Overcast
5:36 AM 35.6 °F - 35.6 °F 100% 29.95 in 0.5 mi Calm Calm - N/A Fog Fog
5:47 AM 35.6 °F - 35.6 °F 100% 29.95 in 5.0 mi Calm Calm - N/A   Overcast
5:53 AM 35.1 °F - 35.1 °F 100% 29.95 in 5.0 mi Calm Calm - N/A   Overcast
6:53 AM 34.0 °F 31.0 °F 33.1 °F 96% 29.96 in 5.0 mi South 3.5 mph - N/A Fog Overcast
8:53 AM 39.0 °F 35.7 °F 37.9 °F 96% 30.00 in 10.0 mi SW 4.6 mph - N/A   Overcast
9:53 AM 39.0 °F 35.7 °F 37.9 °F 96% 30.01 in 10.0 mi SSW 4.6 mph - N/A   Overcast
10:05 AM 39.2 °F 34.2 °F 37.4 °F 93% 30.01 in 10.0 mi SSW 6.9 mph - N/A   Overcast
10:38 AM 41.0 °F 35.2 °F 37.4 °F 87% 30.01 in 10.0 mi SW 9.2 mph - N/A   Scattered Clouds
10:53 AM 41.0 °F 35.8 °F 35.1 °F 79% 30.01 in 10.0 mi SW 8.1 mph - N/A   Scattered Clouds
11:53 AM 43.0 °F 38.2 °F 33.1 °F 68% 29.98 in 10.0 mi WSW 8.1 mph - N/A   Clear
12:53 PM 42.1 °F 36.1 °F 34.0 °F 73% 29.97 in 10.0 mi SW 10.4 mph - N/A   Clear
1:53 PM 42.1 °F 36.1 °F 33.1 °F 70% 29.96 in 10.0 mi SW 10.4 mph - N/A   Clear
2:53 PM 39.9 °F 35.1 °F 33.1 °F 77% 29.97 in 10.0 mi SW 6.9 mph - N/A   Clear
3:53 PM 39.9 °F 36.7 °F 34.0 °F 79% 29.98 in 10.0 mi SSW 4.6 mph - N/A   Clear
4:53 PM 36.0 °F 33.3 °F 33.1 °F 89% 29.99 in 10.0 mi SW 3.5 mph - N/A   Clear
5:53 PM 35.1 °F - 32.0 °F 89% 29.99 in 7.0 mi Calm Calm - N/A   Clear
6:53 PM 34.0 °F - 30.9 °F 89% 29.99 in 9.0 mi Calm Calm - N/A   Clear
7:53 PM 32.0 °F - 30.0 °F 92% 29.99 in 10.0 mi Calm Calm - N/A   Clear
8:53 PM 30.0 °F - 28.0 °F 92% 29.99 in 7.0 mi Calm Calm - N/A   Clear
9:53 PM 33.1 °F - 30.0 °F 89% 29.99 in 8.0 mi Calm Calm - N/A   Clear
10:53 PM 35.1 °F 29.3 °F 33.1 °F 92% 29.97 in 10.0 mi SSE 6.9 mph - N/A   Mostly Cloudy
11:53 PM 37.0 °F 32.4 °F 35.1 °F 93% 29.94 in 10.0 mi SSE 5.8 mph - N/A   Clear